Home   Weather   Reims   Past weeks

Flag for France Past Weather in Reims, Champagne-Ardenne, France — Yesterday and Last 2 Weeks

Now
32 °F

Clear.


Feels Like: 24 °F
Forecast: 29 / 40 °F
Wind: 9 mph from Northeast

Location: Chalons-Vatry

Current Time: Dec 3, 2016 at 8:11:42 am

Latest Report: Dec 3, 2016 at 7:30 am


Visibility: 4 mi

Pressure: 30.15 "Hg

Humidity: 100%

Dew Point: 32 °F

Location of ReimsLocation

Past Weather in Reims — Graph

°F

Reims Temperature Yesterday

Maximum temperature yesterday: 37 °F (at 12:30 pm)
Minimum temperature yesterday: 32 °F (at 12:00 am)
Average temperature yesterday: 36 °F

High & Low Weather Summary for the Past Weeks

 TemperatureHumidityPressure
High61 °F (Nov 21, 2:30 pm)100% (Nov 21, 5:00 pm)30.57 "Hg (Nov 21, 5:00 pm)
Low21 °F (Nov 30, 5:00 am)48% (Nov 29, 3:00 pm)29.39 "Hg (Nov 20, 5:30 am)
Average42 °F85%30.01 "Hg
* Reported Nov 18 7:00 am — Dec 3 7:00 am, Reims, Weather by CustomWeather, © 2016

Note: Actual official high and low records may vary slightly from our data, if they occured in-between our weather recording intervals... More about our weather records

Advertising

Reims Weather History for the Previous 24 Hours

Scroll right to see more
 ConditionsComfort  
Time TempWeatherWind HumidityBarometerVisibility
7:00 am
Sat, Dec 3
34 °FFog.9 mph100%30.15 "Hg2 mi
6:30 am34 °FDense fog.8 mph100%30.15 "Hg1 mi
6:00 am34 °FFog.9 mph100%30.15 "Hg2 mi
5:30 am34 °FFog.7 mph100%30.15 "Hg1 mi
5:00 am36 °FFog.9 mph100%30.15 "Hg1 mi
4:30 am36 °FFog.6 mph100%30.15 "Hg0 mi
4:00 am36 °FFog.7 mph100%30.15 "Hg0 mi
3:30 am36 °FFog.8 mph100%30.15 "Hg0 mi
3:00 am36 °FFog.7 mph100%30.15 "Hg0 mi
2:30 am36 °FFog.8 mph100%30.15 "Hg0 mi
2:00 am36 °FFog.7 mph100%30.15 "Hg0 mi
1:30 am36 °FFog.7 mph100%30.15 "Hg0 mi
1:00 am36 °FFog.7 mph100%30.18 "Hg0 mi
12:30 am36 °FFog.7 mph100%30.18 "Hg0 mi
12:00 am37 °FFog.7 mph100%30.18 "Hg0 mi
11:30 pm
Fri, Dec 2
36 °FFog.5 mph100%30.18 "Hg0 mi
11:00 pm37 °FFog.6 mph100%30.18 "Hg0 mi
10:30 pm37 °FFog.6 mph100%30.18 "Hg0 mi
10:00 pm37 °FFog.7 mph100%30.18 "Hg0 mi
9:30 pm37 °FFog.8 mph100%30.18 "Hg0 mi
9:00 pm37 °FFog.9 mph100%30.18 "Hg0 mi
8:30 pm37 °FFog.9 mph100%30.18 "Hg0 mi
8:00 pm37 °FFog.8 mph100%30.18 "Hg0 mi
7:30 pm37 °FFog.7 mph100%30.18 "Hg0 mi
7:00 pm37 °FFog.7 mph100%30.18 "Hg0 mi
6:30 pm37 °FFog.6 mph100%30.21 "Hg0 mi
6:00 pm37 °FFog.7 mph100%30.21 "Hg0 mi
5:30 pm37 °FFog.7 mph100%30.21 "Hg0 mi
5:00 pm37 °FFog.7 mph100%30.21 "Hg0 mi
4:30 pm37 °FFog.7 mph100%30.21 "Hg0 mi
4:00 pm37 °FFog.5 mph100%30.21 "Hg0 mi
3:30 pm37 °FFog.5 mph100%30.21 "Hg0 mi
3:00 pm37 °FFog.5 mph100%30.21 "Hg0 mi
2:30 pm37 °FFog.5 mph100%30.21 "Hg0 mi
2:00 pm37 °FFog.3 mph100%30.21 "Hg0 mi
1:30 pm37 °FFog.2 mph100%30.24 "Hg0 mi
1:00 pm37 °FFog.3 mph100%30.24 "Hg0 mi
12:30 pm37 °FFog.2 mph93%30.24 "Hg0 mi
12:00 pm36 °FFog.3 mph100%30.27 "Hg0 mi
11:30 am36 °FFog.2 mph100%30.27 "Hg0 mi
11:00 am36 °FFog.2 mph93%30.27 "Hg0 mi
10:30 am36 °FFog.No wind93%30.27 "Hg0 mi
10:00 am36 °FFog.2 mph93%30.27 "Hg0 mi
9:30 am34 °FDense fog.3 mph100%30.27 "Hg1 mi
9:00 am34 °FDense fog.3 mph100%30.27 "Hg1 mi
8:30 am34 °FFog.2 mph93%30.27 "Hg1 mi
8:00 am34 °FFog.3 mph93%30.27 "Hg2 mi
Weather by CustomWeather, © 2016

See weather overviewHow to use our weather pages